Regional Weather Roundup
Issued by NWS Green Bay, WI

Home | Current Version | Previous Version | Graphics & Text | Print | Product List | Glossary Off
Versions: 1 2 3 4 5 6 7 8 9 10 11 12 13 14 15 16 17 18 19 20 21 22 23 24 25 26 27 28 29 30 31 32 33 34 35 36 37 38 39 40 41 42 43 44 45 46 47 48 49 50

373
ASUS43 KGRB 211211
RWRGRB

NORTH-CENTRAL AND NORTHEAST WISCONSIN REGIONAL WEATHER ROUNDUP
NATIONAL WEATHER SERVICE GREEN BAY WI
700 AM CDT MON AUG 21 2017

WIZ005-009-010>012-018-019-211300-
NORTH CENTRAL WISCONSIN

CITY           SKY/WX    TMP DP  RH WIND       PRES   REMARKS
IRONWOOD       CLOUDY    52  51  97 CALM      30.09S
MANITOWISH WTR MOCLDY    50  50 100 CALM      30.10S FOG
ARBOR VITAE    PTCLDY    57  56  96 CALM      30.09S
EAGLE RIVER    FOG       54  54 100 CALM      30.09S VSB 1/4
LAND O LAKES   CLOUDY    53  53 100 CALM      30.11S FOG
RHINELANDER    PTCLDY    61  61 100 N3        30.10R
PHILLIPS       CLOUDY    54  54 100 CALM      30.09R
ANTIGO         CLOUDY    62  62 100 CALM      30.09R FOG
TOMAHAWK         N/A     57  56  97 CALM      30.10R FOG
MERRILL        NOT AVBL
$$

WIZ013-073-211300-
NORTHEAST WISCONSIN

CITY           SKY/WX    TMP DP  RH WIND       PRES   REMARKS
IRON MOUNTAIN  PTCLDY    65  60  84 NW6       30.06S
MARINETTE      CLOUDY    67  66  97 NW3       30.04F FOG
OCONTO         CLOUDY    64  64  98 CALM      30.04S
$$

WIZ017-030-035>037-045-211300-
CENTRAL WISCONSIN

CITY           SKY/WX    TMP DP  RH WIND       PRES   REMARKS
MEDFORD        PTCLDY    61  60  94 NE3       30.08R
WAUSAU         MOCLDY    66  65  96 NW3       30.06S FOG
MOSINEE        FOG       63  63 100 CALM      30.07S VSB 1/2
MARSHFIELD     CLOUDY    64  62  93 CALM      30.07R FOG
WISC RAPIDS    LGT RAIN  67  66  97 CALM      30.08R FOG
STEVENS POINT  CLOUDY    63  63 100 CALM      30.08R
WAUPACA        CLOUDY    66  65  98 CALM      30.06R
SHAWANO        CLOUDY    66  64  94 CALM      30.05R FOG
CLINTONVILLE   CLOUDY    63  63 100 CALM      30.05S
WAUTOMA        CLOUDY    61  61 100 NW3       30.06S
$$

WIZ038-039-048-051-211300-
FOX VALLEY

CITY           SKY/WX    TMP DP  RH WIND       PRES   REMARKS
NWS GREEN BAY  CLOUDY    64  64 100 S6        30.05R FOG
APPLETON       MOCLDY    64  64 100 CALM      30.04S FOG
OSHKOSH        CLOUDY    64  63  96 S6        30.06R FOG
FOND DU LAC    MOCLDY    65  62  90 CALM      30.06S FOG
$$

WIZ022-050-052-211300-
EAST CENTRAL WISCONSIN

CITY           SKY/WX    TMP DP  RH WIND       PRES   REMARKS
EPHRAIM        FAIR      68  68  98 W3        30.03F FOG
WASHINGTON ISL PTSUNNY   67  67  98 CALM      30.03S
STURGEON BAY   CLOUDY    68  67  96 CALM      30.04S
MANITOWOC      CLOUDY    64  63  96 CALM      30.06S
SHEBOYGAN      CLOUDY    63  63 100 CALM      30.06R FOG
$$

LMZ563-521-522-541>543-211300-
LAKESHORE

STATION/POSITION TIME  TEMP    WIND        PRES    VSBY  WAVE
                       AIR SEA DIR/SP/G                  HT/PER
                 (UTC) (F)     (DEG/KT/KT) (MB)    (MI)  (FT/S)
SHEBOYGAN LKSHOR 1200   70     320/  4/  4 1017.2S
KEWAUNEE LKSHORE 1142   66     180/  5/  6 1016.8R
NORTHPORT PIER   1140   70     270/  3/  5 1016.9S
N MID LAKE BUOY  1150   68 67  230/  4/  4 1017.5R         2/ 5
S GREEN BAY BUOY 1200   71 71  250/  6/  8 1017.0
SISTER BAY LKSHO 1203   71     310/  5/  6   N/A
MENOMINEE LKSHOR 1142   68     320/  3/  6 1016.7F
$$




USA.gov is the U.S. government's official web portal to all federal, state and local government web resources and services.